EWG86F EDDL-LDDU

Flight info

Callsign EWG86F
Flight time 1h 56m
Altitude 39000
Route DODEN1T DODEN Y852 TUSUK DCT ULNOK L607 UTABA DCT BEMKI DCT ELMEM DCT DIRAB DCT VESAL DCT PEVAL DCT SIPAL
Aircraft A20N/M-SDE2E3FGHIRWXY/LB1

Departure

Time 2026-05-04 19:12
Airport Düsseldorf Airport (EDDL)

Arrival

Time 2026-05-04 21:08
Airport Dubrovnik Ruđer Bošković Airport (LDDU)
Time Latitude Longitude Altitude Speed Heading
2026-05-04 18:17 51.27563 6.75759 130 ft 0 kts 249°
2026-05-04 18:47 51.27570 6.75792 126 ft 4 kts 259°
2026-05-04 18:48 51.27572 6.75834 126 ft 4 kts 281°
2026-05-04 18:48 51.27570 6.75847 125 ft 1 kts 284°
2026-05-04 18:48 51.27569 6.75852 125 ft 2 kts 290°
2026-05-04 18:48 51.27562 6.75873 126 ft 2 kts 319°
2026-05-04 18:49 51.27556 6.75881 127 ft 0 kts 333°
2026-05-04 18:52 51.27583 6.75859 128 ft 10 kts 334°
2026-05-04 18:52 51.27667 6.75809 127 ft 15 kts 359°
2026-05-04 18:52 51.27766 6.75813 129 ft 13 kts
2026-05-04 18:53 51.27851 6.75815 126 ft 12 kts
2026-05-04 18:53 51.27942 6.75819 131 ft 13 kts
2026-05-04 18:53 51.28035 6.75837 131 ft 13 kts 26°
2026-05-04 18:53 51.28093 6.75946 134 ft 13 kts 53°
2026-05-04 18:54 51.28154 6.76074 133 ft 16 kts 52°
2026-05-04 18:54 51.28220 6.76211 133 ft 16 kts 53°
2026-05-04 18:54 51.28293 6.76365 131 ft 19 kts 52°
2026-05-04 18:54 51.28373 6.76532 133 ft 19 kts 52°
2026-05-04 18:55 51.28440 6.76672 134 ft 16 kts 52°
2026-05-04 18:55 51.28574 6.76956 140 ft 17 kts 52°
2026-05-04 18:55 51.28638 6.77088 142 ft 15 kts 52°
2026-05-04 18:56 51.28709 6.77235 140 ft 19 kts 52°
2026-05-04 18:56 51.28788 6.77401 140 ft 18 kts 53°
2026-05-04 18:56 51.28860 6.77553 139 ft 17 kts 52°
2026-05-04 18:56 51.28930 6.77699 141 ft 17 kts 53°
2026-05-04 18:57 51.29004 6.77854 143 ft 17 kts 52°
2026-05-04 18:57 51.29075 6.78005 145 ft 18 kts 53°
2026-05-04 18:57 51.29134 6.78127 145 ft 11 kts 52°
2026-05-04 18:57 51.29163 6.78187 146 ft 0 kts 52°
2026-05-04 18:59 51.29177 6.78215 146 ft 9 kts 53°
2026-05-04 18:59 51.29240 6.78306 145 ft 15 kts 37°
2026-05-04 19:00 51.29324 6.78403 146 ft 7 kts 36°
2026-05-04 19:00 51.29325 6.78404 146 ft 0 kts 36°
2026-05-04 19:04 51.29335 6.78415 147 ft 4 kts 35°
2026-05-04 19:04 51.29363 6.78446 147 ft 0 kts 35°
2026-05-04 19:06 51.29369 6.78453 147 ft 3 kts 33°
2026-05-04 19:06 51.29394 6.78468 147 ft 0 kts 13°
2026-05-04 19:09 51.29408 6.78471 147 ft 6 kts
2026-05-04 19:09 51.29483 6.78465 148 ft 12 kts 352°
2026-05-04 19:09 51.29494 6.78408 147 ft 2 kts 224°
2026-05-04 19:10 51.29486 6.78393 147 ft 0 kts 231°
2026-05-04 19:11 51.29485 6.78392 147 ft 0 kts 231°
2026-05-04 19:11 51.29398 6.78213 147 ft 54 kts 232°
2026-05-04 19:11 51.29037 6.77458 141 ft 115 kts 233°
2026-05-04 19:12 51.28450 6.76225 142 ft 161 kts 233°
2026-05-04 19:12 51.27178 6.73408 1346 ft 158 kts 231°
2026-05-04 19:12 51.26514 6.72003 1948 ft 160 kts 231°
2026-05-04 19:13 51.25808 6.70515 2343 ft 177 kts 231°
2026-05-04 19:13 51.25029 6.68864 2732 ft 196 kts 232°
2026-05-04 19:13 51.24166 6.67023 3118 ft 220 kts 232°
2026-05-04 19:13 51.23160 6.65049 3668 ft 241 kts 221°
2026-05-04 19:14 51.21673 6.63754 4352 ft 254 kts 193°
2026-05-04 19:14 51.19899 6.63691 5323 ft 258 kts 175°
2026-05-04 19:14 51.18083 6.64006 6321 ft 261 kts 174°
2026-05-04 19:14 51.16299 6.64361 7223 ft 265 kts 167°
2026-05-04 19:15 51.14628 6.65620 8118 ft 272 kts 142°
2026-05-04 19:15 51.13445 6.68007 9010 ft 281 kts 116°
2026-05-04 19:15 51.12966 6.71076 9341 ft 289 kts 93°
2026-05-04 19:15 51.13049 6.74285 9524 ft 292 kts 87°
2026-05-04 19:16 51.13240 6.77508 9680 ft 293 kts 86°
2026-05-04 19:16 51.13432 6.80754 9817 ft 294 kts 87°
2026-05-04 19:16 51.13596 6.84001 9929 ft 295 kts 88°
2026-05-04 19:16 51.13737 6.87269 9962 ft 296 kts 89°
2026-05-04 19:17 51.13864 6.90534 9968 ft 297 kts 89°
2026-05-04 19:17 51.13986 6.93994 10086 ft 326 kts 89°
2026-05-04 19:17 51.14115 6.97703 10557 ft 342 kts 89°
2026-05-04 19:17 51.14248 7.01428 11345 ft 346 kts 89°
2026-05-04 19:18 51.14387 7.05277 12152 ft 351 kts 89°
2026-05-04 19:18 51.14525 7.09173 12980 ft 355 kts 89°
2026-05-04 19:18 51.14663 7.13138 13772 ft 360 kts 89°
2026-05-04 19:18 51.14757 7.15835 14239 ft 362 kts 89°
2026-05-04 19:19 51.14893 7.19814 14959 ft 367 kts 89°
2026-05-04 19:19 51.15033 7.23936 15658 ft 370 kts 89°
2026-05-04 19:19 51.15165 7.27862 16323 ft 374 kts 89°
2026-05-04 19:19 51.15306 7.32091 17018 ft 378 kts 89°
2026-05-04 19:20 51.15442 7.36227 17693 ft 383 kts 89°
2026-05-04 19:20 51.15494 7.40484 18333 ft 385 kts 98°
2026-05-04 19:20 51.14857 7.44598 18885 ft 383 kts 116°
2026-05-04 19:20 51.13496 7.48136 19446 ft 381 kts 133°
2026-05-04 19:21 51.11619 7.51136 20003 ft 383 kts 139°
2026-05-04 19:21 51.09663 7.54043 20585 ft 387 kts 140°
2026-05-04 19:21 51.07683 7.56975 21150 ft 391 kts 140°
2026-05-04 19:21 51.05687 7.59959 21714 ft 395 kts 140°
2026-05-04 19:22 51.03490 7.62558 22262 ft 394 kts 154°
2026-05-04 19:22 51.01005 7.64409 22810 ft 396 kts 159°
2026-05-04 19:22 50.98433 7.66208 23373 ft 400 kts 159°
2026-05-04 19:22 50.95907 7.67950 23873 ft 403 kts 159°
2026-05-04 19:23 50.93302 7.69733 24420 ft 403 kts 160°
2026-05-04 19:23 50.90718 7.71495 24964 ft 405 kts 160°
2026-05-04 19:23 50.88162 7.73234 25437 ft 407 kts 160°
2026-05-04 19:23 50.85554 7.75007 25940 ft 408 kts 160°
2026-05-04 19:24 50.82941 7.76781 26419 ft 410 kts 160°
2026-05-04 19:24 50.80320 7.78560 26887 ft 411 kts 160°
2026-05-04 19:24 50.77681 7.80349 27344 ft 413 kts 160°
2026-05-04 19:24 50.75039 7.82137 27780 ft 415 kts 161°
2026-05-04 19:25 50.72371 7.83941 28198 ft 417 kts 161°
2026-05-04 19:25 50.69697 7.85746 28605 ft 419 kts 161°
2026-05-04 19:25 50.67014 7.87556 29019 ft 421 kts 161°
2026-05-04 19:25 50.64311 7.89376 29401 ft 423 kts 161°
2026-05-04 19:26 50.61598 7.91200 29755 ft 425 kts 161°
2026-05-04 19:26 50.58872 7.93031 30115 ft 427 kts 161°
2026-05-04 19:26 50.56137 7.94867 30431 ft 429 kts 161°
2026-05-04 19:26 50.53384 7.96713 30736 ft 431 kts 161°
2026-05-04 19:27 50.50621 7.98562 31054 ft 433 kts 161°
2026-05-04 19:27 50.47845 8.00419 31432 ft 432 kts 161°
2026-05-04 19:27 50.45082 8.02265 31856 ft 431 kts 161°
2026-05-04 19:27 50.42325 8.04105 32282 ft 430 kts 161°
2026-05-04 19:28 50.39578 8.05935 32690 ft 429 kts 161°
2026-05-04 19:28 50.36831 8.07763 32874 ft 427 kts 161°
2026-05-04 19:28 50.34098 8.09579 32992 ft 428 kts 161°
2026-05-04 19:28 50.31356 8.11397 33340 ft 427 kts 161°
2026-05-04 19:29 50.28655 8.13187 33735 ft 426 kts 161°
2026-05-04 19:29 50.27742 8.13791 33867 ft 425 kts 161°
2026-05-04 19:29 50.25674 8.15160 34123 ft 424 kts 161°
2026-05-04 19:30 50.22957 8.16954 34385 ft 425 kts 161°
2026-05-04 19:30 50.20229 8.18754 34632 ft 425 kts 161°
2026-05-04 19:30 50.17531 8.20531 34866 ft 426 kts 161°
2026-05-04 19:31 50.12089 8.24112 34960 ft 425 kts 161°
2026-05-04 19:31 50.06648 8.27684 34960 ft 425 kts 161°
2026-05-04 19:32 50.01175 8.31266 34961 ft 425 kts 161°
2026-05-04 19:32 49.95702 8.34838 34963 ft 425 kts 161°
2026-05-04 19:33 49.90247 8.38387 34964 ft 426 kts 161°
2026-05-04 19:33 49.84955 8.42602 34968 ft 432 kts 150°
2026-05-04 19:34 49.80276 8.48532 34967 ft 438 kts 141°
2026-05-04 19:34 49.75834 8.55065 34964 ft 438 kts 141°
2026-05-04 19:35 49.70861 8.60368 34978 ft 428 kts 160°
2026-05-04 19:35 49.65207 8.62760 34984 ft 421 kts 173°
2026-05-04 19:36 49.59441 8.64335 34986 ft 421 kts 173°
2026-05-04 19:36 49.53516 8.65979 34992 ft 421 kts 173°
2026-05-04 19:37 49.47791 8.67684 34992 ft 423 kts 168°
2026-05-04 19:37 49.42140 8.70915 34989 ft 428 kts 159°
2026-05-04 19:38 49.36673 8.74764 35070 ft 430 kts 159°
2026-05-04 19:38 49.33942 8.76667 35329 ft 430 kts 159°
2026-05-04 19:38 49.31219 8.78559 35581 ft 430 kts 159°
2026-05-04 19:38 49.28513 8.80434 35822 ft 430 kts 159°
2026-05-04 19:39 49.25844 8.82281 36044 ft 430 kts 159°
2026-05-04 19:39 49.23116 8.84166 36261 ft 430 kts 159°
2026-05-04 19:39 49.20390 8.86047 36475 ft 430 kts 159°
2026-05-04 19:39 49.17663 8.87926 36689 ft 430 kts 159°
2026-05-04 19:40 49.14925 8.89812 36898 ft 430 kts 159°
2026-05-04 19:40 49.12203 8.91683 37090 ft 430 kts 159°
2026-05-04 19:40 49.09472 8.93559 37280 ft 431 kts 159°
2026-05-04 19:40 49.06739 8.95433 37467 ft 431 kts 159°
2026-05-04 19:41 49.04926 8.96675 37586 ft 431 kts 159°
2026-05-04 19:41 49.02187 8.98551 37752 ft 432 kts 159°
2026-05-04 19:41 48.99449 9.00423 37939 ft 432 kts 159°
2026-05-04 19:41 48.96704 9.02298 38100 ft 432 kts 159°
2026-05-04 19:42 48.93107 9.04751 38294 ft 432 kts 159°
2026-05-04 19:42 48.91260 9.06009 38395 ft 433 kts 159°
2026-05-04 19:42 48.88512 9.07879 38529 ft 433 kts 159°
2026-05-04 19:42 48.85721 9.09776 38675 ft 433 kts 159°
2026-05-04 19:43 48.82933 9.11669 38779 ft 434 kts 159°
2026-05-04 19:43 48.80180 9.13536 38881 ft 434 kts 159°
2026-05-04 19:43 48.77423 9.15402 38950 ft 434 kts 159°
2026-05-04 19:44 48.71910 9.19130 38965 ft 434 kts 159°
2026-05-04 19:44 48.66432 9.22824 38969 ft 434 kts 159°
2026-05-04 19:45 48.60856 9.26487 38963 ft 433 kts 162°
2026-05-04 19:45 48.55351 9.29559 38979 ft 432 kts 163°
2026-05-04 19:46 48.49842 9.33095 38967 ft 437 kts 150°
2026-05-04 19:46 48.44961 9.38401 38973 ft 439 kts 146°
2026-05-04 19:47 48.40095 9.43837 38976 ft 439 kts 147°
2026-05-04 19:47 48.35079 9.49223 38977 ft 439 kts 148°
2026-05-04 19:48 48.30080 9.54514 38967 ft 440 kts 148°
2026-05-04 19:48 48.25140 9.59726 38966 ft 440 kts 148°
2026-05-04 19:49 48.20137 9.64997 38971 ft 440 kts 148°
2026-05-04 19:49 48.15789 9.69564 38968 ft 440 kts 148°
2026-05-04 19:50 48.10793 9.74802 38965 ft 440 kts 148°
2026-05-04 19:50 48.05747 9.80079 38963 ft 440 kts 148°
2026-05-04 19:51 48.00728 9.85314 38962 ft 440 kts 148°
2026-05-04 19:51 47.95709 9.90538 38977 ft 440 kts 148°
2026-05-04 19:52 47.90686 9.95752 38981 ft 440 kts 148°
2026-05-04 19:52 47.85694 10.00922 38976 ft 440 kts 148°
2026-05-04 19:53 47.80631 10.06153 38978 ft 440 kts 148°
2026-05-04 19:53 47.75935 10.10994 38981 ft 441 kts 148°
2026-05-04 19:54 47.70995 10.16075 38976 ft 441 kts 148°
2026-05-04 19:54 47.65933 10.21268 38984 ft 442 kts 148°
2026-05-04 19:55 47.60877 10.26442 38987 ft 442 kts 149°
2026-05-04 19:55 47.55818 10.31608 38996 ft 443 kts 148°
2026-05-04 19:56 47.50735 10.36785 38997 ft 443 kts 149°
2026-05-04 19:56 47.45650 10.41952 39004 ft 444 kts 148°
2026-05-04 19:57 47.40551 10.47121 39010 ft 445 kts 149°
2026-05-04 19:57 47.35462 10.52268 39011 ft 444 kts 149°
2026-05-04 19:58 47.30333 10.57444 39024 ft 445 kts 149°
2026-05-04 19:58 47.25219 10.62591 39037 ft 444 kts 149°
2026-05-04 19:59 47.20107 10.67722 39034 ft 444 kts 149°
2026-05-04 19:59 47.15001 10.72838 39060 ft 445 kts 149°
2026-05-04 20:00 47.09969 10.77869 39082 ft 446 kts 149°
2026-05-04 20:00 47.04834 10.82985 39100 ft 445 kts 149°
2026-05-04 20:01 46.99698 10.88091 39111 ft 447 kts 149°
2026-05-04 20:01 46.94556 10.93197 39124 ft 447 kts 149°
2026-05-04 20:02 46.89407 10.98295 39129 ft 447 kts 149°
2026-05-04 20:02 46.84288 11.03353 39120 ft 447 kts 148°
2026-05-04 20:03 46.79472 11.09158 39129 ft 452 kts 137°
2026-05-04 20:03 46.75167 11.15863 39101 ft 453 kts 136°
2026-05-04 20:04 46.70871 11.22579 39071 ft 453 kts 136°
2026-05-04 20:04 46.66531 11.29317 39045 ft 454 kts 136°
2026-05-04 20:05 46.62212 11.35997 39039 ft 454 kts 136°
2026-05-04 20:05 46.57871 11.42698 39031 ft 454 kts 136°
2026-05-04 20:06 46.53532 11.49379 39031 ft 454 kts 136°
2026-05-04 20:06 46.49225 11.55996 39037 ft 455 kts 136°
2026-05-04 20:07 46.44822 11.62738 39050 ft 455 kts 136°
2026-05-04 20:07 46.40459 11.69406 39063 ft 455 kts 136°
2026-05-04 20:08 46.36064 11.76000 39074 ft 454 kts 137°
2026-05-04 20:08 46.31593 11.82463 39081 ft 455 kts 137°
2026-05-04 20:09 46.27878 11.87840 39084 ft 455 kts 137°
2026-05-04 20:09 46.23503 11.94179 39081 ft 455 kts 137°
2026-05-04 20:10 46.18996 12.00703 39075 ft 456 kts 137°
2026-05-04 20:10 46.14515 12.07173 39073 ft 456 kts 137°
2026-05-04 20:11 46.10038 12.13620 39070 ft 456 kts 137°
2026-05-04 20:11 46.05545 12.20075 39066 ft 457 kts 137°
2026-05-04 20:12 46.01038 12.26532 39065 ft 457 kts 137°
2026-05-04 20:12 45.96530 12.32978 39066 ft 458 kts 137°
2026-05-04 20:13 45.92006 12.39430 39066 ft 458 kts 137°
2026-05-04 20:13 45.87476 12.45875 39066 ft 458 kts 137°
2026-05-04 20:14 45.82944 12.52307 39064 ft 459 kts 137°
2026-05-04 20:14 45.78403 12.58736 39064 ft 459 kts 137°
2026-05-04 20:15 45.73853 12.65162 39057 ft 459 kts 137°
2026-05-04 20:15 45.69299 12.71578 39059 ft 460 kts 138°
2026-05-04 20:16 45.64739 12.77988 39059 ft 460 kts 138°
2026-05-04 20:16 45.60172 12.84391 39054 ft 460 kts 138°
2026-05-04 20:17 45.55602 12.90784 39059 ft 460 kts 138°
2026-05-04 20:17 45.50994 12.97214 39054 ft 460 kts 138°
2026-05-04 20:18 45.46414 13.03590 39053 ft 460 kts 138°
2026-05-04 20:18 45.41861 13.09912 39052 ft 460 kts 138°
2026-05-04 20:19 45.37275 13.16266 39060 ft 460 kts 138°
2026-05-04 20:19 45.32685 13.22612 39065 ft 461 kts 137°
2026-05-04 20:20 45.28530 13.29577 39067 ft 463 kts 129°
2026-05-04 20:20 45.24651 13.36892 39063 ft 464 kts 129°
2026-05-04 20:21 45.20760 13.44194 39065 ft 464 kts 129°
2026-05-04 20:21 45.15055 13.54851 39075 ft 465 kts 129°
2026-05-04 20:22 45.11284 13.61865 39070 ft 465 kts 129°
2026-05-04 20:22 45.07353 13.69159 39089 ft 466 kts 129°
2026-05-04 20:23 45.03390 13.76494 39098 ft 467 kts 129°
2026-05-04 20:23 44.99441 13.83782 39099 ft 468 kts 129°
2026-05-04 20:24 44.95483 13.91068 39103 ft 468 kts 129°
2026-05-04 20:24 44.91510 13.98365 39113 ft 468 kts 129°
2026-05-04 20:25 44.87534 14.05647 39111 ft 469 kts 129°
2026-05-04 20:25 44.83550 14.12927 39105 ft 469 kts 129°
2026-05-04 20:26 44.79588 14.20146 39104 ft 469 kts 129°
2026-05-04 20:26 44.75595 14.27406 39098 ft 469 kts 129°
2026-05-04 20:27 44.71596 14.34656 39093 ft 469 kts 129°
2026-05-04 20:27 44.67592 14.41898 39096 ft 469 kts 129°
2026-05-04 20:28 44.63581 14.49134 39096 ft 470 kts 129°
2026-05-04 20:28 44.59564 14.56362 39094 ft 470 kts 129°
2026-05-04 20:29 44.55539 14.63588 39095 ft 470 kts 129°
2026-05-04 20:29 44.51508 14.70804 39096 ft 470 kts 129°
2026-05-04 20:30 44.47474 14.78010 39095 ft 470 kts 129°
2026-05-04 20:30 44.43431 14.85213 39096 ft 471 kts 129°
2026-05-04 20:31 44.39380 14.92412 39099 ft 471 kts 129°
2026-05-04 20:31 44.35351 14.99554 39096 ft 471 kts 129°
2026-05-04 20:32 44.31257 15.06793 39112 ft 472 kts 129°
2026-05-04 20:32 44.27185 15.13975 39118 ft 472 kts 129°
2026-05-04 20:33 44.23105 15.21152 39125 ft 472 kts 129°
2026-05-04 20:33 44.19019 15.28324 39130 ft 473 kts 129°
2026-05-04 20:34 44.14921 15.35499 39131 ft 473 kts 129°
2026-05-04 20:34 44.10814 15.42670 39131 ft 474 kts 129°
2026-05-04 20:35 44.06703 15.49832 39133 ft 474 kts 129°
2026-05-04 20:35 44.02578 15.57000 39135 ft 475 kts 129°
2026-05-04 20:36 43.98474 15.64114 39132 ft 475 kts 129°
2026-05-04 20:36 43.94313 15.71308 39120 ft 474 kts 130°
2026-05-04 20:37 43.90217 15.78373 39117 ft 473 kts 130°
2026-05-04 20:37 43.86092 15.85472 39116 ft 473 kts 130°
2026-05-04 20:38 43.81959 15.92566 38847 ft 474 kts 130°
2026-05-04 20:38 43.79881 15.96126 38232 ft 476 kts 130°
2026-05-04 20:38 43.77789 15.99705 37480 ft 478 kts 130°
2026-05-04 20:39 43.75700 16.03277 36765 ft 478 kts 130°
2026-05-04 20:39 43.73608 16.06848 36057 ft 478 kts 130°
2026-05-04 20:39 43.71515 16.10416 35333 ft 478 kts 130°
2026-05-04 20:39 43.69423 16.13978 34600 ft 479 kts 130°
2026-05-04 20:40 43.67324 16.17547 33798 ft 480 kts 130°
2026-05-04 20:40 43.65223 16.21116 33082 ft 477 kts 130°
2026-05-04 20:40 43.63130 16.24667 32326 ft 476 kts 130°
2026-05-04 20:40 43.61043 16.28204 31568 ft 475 kts 130°
2026-05-04 20:41 43.58959 16.31731 31036 ft 469 kts 130°
2026-05-04 20:41 43.56910 16.35195 30497 ft 464 kts 130°
2026-05-04 20:41 43.54880 16.38623 29915 ft 459 kts 130°
2026-05-04 20:41 43.52869 16.42014 29374 ft 453 kts 130°
2026-05-04 20:42 43.50906 16.45321 28847 ft 447 kts 130°
2026-05-04 20:42 43.48951 16.48610 28326 ft 441 kts 130°
2026-05-04 20:42 43.47018 16.51858 27807 ft 435 kts 130°
2026-05-04 20:42 43.45135 16.55020 27300 ft 430 kts 130°
2026-05-04 20:43 43.43246 16.58187 26794 ft 425 kts 130°
2026-05-04 20:43 43.41379 16.61315 26291 ft 421 kts 130°
2026-05-04 20:43 43.39534 16.64402 25790 ft 417 kts 130°
2026-05-04 20:43 43.37704 16.67462 25293 ft 413 kts 130°
2026-05-04 20:44 43.35888 16.70495 24803 ft 409 kts 130°
2026-05-04 20:44 43.34089 16.73496 24311 ft 405 kts 130°
2026-05-04 20:44 43.32297 16.76481 23784 ft 404 kts 130°
2026-05-04 20:44 43.30524 16.79433 23290 ft 399 kts 130°
2026-05-04 20:45 43.28770 16.82351 22807 ft 393 kts 130°
2026-05-04 20:45 43.27039 16.85227 22335 ft 388 kts 130°
2026-05-04 20:45 43.25333 16.88058 21863 ft 383 kts 130°
2026-05-04 20:45 43.23645 16.90858 21387 ft 379 kts 130°
2026-05-04 20:46 43.21974 16.93627 20931 ft 374 kts 130°
2026-05-04 20:46 43.20324 16.96360 20470 ft 371 kts 130°
2026-05-04 20:46 43.18690 16.99065 20015 ft 367 kts 129°
2026-05-04 20:46 43.17066 17.01752 19565 ft 364 kts 129°
2026-05-04 20:47 43.15458 17.04408 19112 ft 361 kts 129°
2026-05-04 20:47 43.13864 17.07043 18660 ft 358 kts 129°
2026-05-04 20:47 43.12418 17.09804 18188 ft 355 kts 123°
2026-05-04 20:47 43.11064 17.12600 17737 ft 351 kts 123°
2026-05-04 20:48 43.09751 17.15340 17306 ft 355 kts 123°
2026-05-04 20:48 43.08338 17.18276 16837 ft 380 kts 123°
2026-05-04 20:48 43.06859 17.21329 16356 ft 389 kts 123°
2026-05-04 20:48 43.05376 17.24375 15855 ft 389 kts 123°
2026-05-04 20:49 43.03880 17.27437 15383 ft 385 kts 123°
2026-05-04 20:49 43.02404 17.30454 14904 ft 379 kts 123°
2026-05-04 20:49 43.00949 17.33426 14428 ft 373 kts 124°
2026-05-04 20:49 42.99519 17.36342 13968 ft 367 kts 124°
2026-05-04 20:50 42.98109 17.39217 13480 ft 361 kts 124°
2026-05-04 20:50 42.96722 17.42040 13014 ft 355 kts 124°
2026-05-04 20:50 42.95360 17.44811 12587 ft 349 kts 124°
2026-05-04 20:50 42.94018 17.47539 12156 ft 343 kts 124°
2026-05-04 20:51 42.92698 17.50220 11724 ft 338 kts 124°
2026-05-04 20:51 42.91393 17.52868 11298 ft 334 kts 124°
2026-05-04 20:51 42.90106 17.55478 10880 ft 330 kts 124°
2026-05-04 20:51 42.88835 17.58053 10499 ft 325 kts 124°
2026-05-04 20:52 42.87594 17.60566 10348 ft 312 kts 124°
2026-05-04 20:52 42.86405 17.62970 10212 ft 300 kts 124°
2026-05-04 20:52 42.85249 17.65306 9877 ft 296 kts 124°
2026-05-04 20:52 42.84114 17.67599 9713 ft 288 kts 124°
2026-05-04 20:53 42.82982 17.69882 9587 ft 292 kts 124°
2026-05-04 20:53 42.81850 17.72164 9452 ft 290 kts 124°
2026-05-04 20:53 42.80723 17.74433 9330 ft 289 kts 124°
2026-05-04 20:53 42.79598 17.76698 9199 ft 288 kts 124°
2026-05-04 20:54 42.78476 17.78954 9068 ft 287 kts 124°
2026-05-04 20:54 42.77736 17.80440 8986 ft 287 kts 124°
2026-05-04 20:54 42.76615 17.82694 8685 ft 287 kts 124°
2026-05-04 20:54 42.75495 17.84942 8318 ft 287 kts 124°
2026-05-04 20:55 42.74020 17.87900 7835 ft 284 kts 124°
2026-05-04 20:55 42.72920 17.90107 7470 ft 281 kts 124°
2026-05-04 20:55 42.71824 17.92303 7114 ft 279 kts 125°
2026-05-04 20:55 42.70739 17.94479 6747 ft 277 kts 125°
2026-05-04 20:56 42.70009 17.95939 6512 ft 276 kts 125°
2026-05-04 20:56 42.68937 17.98083 6150 ft 273 kts 125°
2026-05-04 20:56 42.67871 18.00209 5793 ft 271 kts 126°
2026-05-04 20:56 42.66622 18.02023 5451 ft 266 kts 143°
2026-05-04 20:57 42.65034 18.03259 5111 ft 262 kts 158°
2026-05-04 20:57 42.63366 18.04235 4772 ft 260 kts 157°
2026-05-04 20:57 42.61717 18.05219 4416 ft 258 kts 157°
2026-05-04 20:57 42.60079 18.06203 4083 ft 256 kts 157°
2026-05-04 20:58 42.58465 18.07173 3874 ft 249 kts 156°
2026-05-04 20:58 42.56913 18.08108 3785 ft 238 kts 156°
2026-05-04 20:58 42.55421 18.09006 3589 ft 232 kts 156°
2026-05-04 20:58 42.53947 18.09892 3329 ft 231 kts 156°
2026-05-04 20:59 42.52467 18.10781 3213 ft 232 kts 156°
2026-05-04 20:59 42.50990 18.11669 3197 ft 231 kts 156°
2026-05-04 20:59 42.49523 18.12559 3198 ft 231 kts 156°
2026-05-04 20:59 42.48056 18.13449 3199 ft 231 kts 156°
2026-05-04 21:00 42.46587 18.14339 3199 ft 231 kts 156°
2026-05-04 21:00 42.45122 18.15227 3198 ft 231 kts 156°
2026-05-04 21:00 42.43658 18.16115 3195 ft 231 kts 156°
2026-05-04 21:00 42.42191 18.17004 3202 ft 231 kts 156°
2026-05-04 21:01 42.40746 18.17879 3198 ft 231 kts 156°
2026-05-04 21:01 42.39281 18.18766 3196 ft 230 kts 156°
2026-05-04 21:01 42.38002 18.20028 3199 ft 231 kts 127°
2026-05-04 21:01 42.37383 18.22019 3202 ft 233 kts 101°
2026-05-04 21:02 42.37196 18.24223 3199 ft 233 kts 91°
2026-05-04 21:02 42.37196 18.26412 3194 ft 233 kts 90°
2026-05-04 21:02 42.37408 18.28551 3203 ft 234 kts 76°
2026-05-04 21:02 42.37846 18.30669 3197 ft 234 kts 71°
2026-05-04 21:03 42.38585 18.32634 3198 ft 235 kts 60°
2026-05-04 21:03 42.39407 18.34542 3199 ft 235 kts 60°
2026-05-04 21:03 42.40204 18.36467 3198 ft 234 kts 66°
2026-05-04 21:03 42.40776 18.38530 3200 ft 234 kts 71°
2026-05-04 21:04 42.41314 18.40610 3197 ft 234 kts 70°
2026-05-04 21:04 42.42117 18.42513 3202 ft 235 kts 45°
2026-05-04 21:04 42.43520 18.43608 3198 ft 233 kts 12°
2026-05-04 21:04 42.45055 18.43535 3194 ft 215 kts 338°
2026-05-04 21:05 42.46207 18.42419 3200 ft 197 kts 311°
2026-05-04 21:05 42.47104 18.41070 3206 ft 193 kts 310°
2026-05-04 21:05 42.48001 18.39710 3205 ft 189 kts 310°
2026-05-04 21:05 42.48844 18.38435 3222 ft 181 kts 310°
2026-05-04 21:06 42.49688 18.37155 3023 ft 182 kts 311°
2026-05-04 21:06 42.50524 18.35887 2764 ft 179 kts 311°
2026-05-04 21:06 42.51324 18.34676 2499 ft 166 kts 311°
2026-05-04 21:06 42.52053 18.33569 2268 ft 150 kts 311°
2026-05-04 21:07 42.52724 18.32552 2029 ft 140 kts 312°
2026-05-04 21:07 42.53390 18.31580 1600 ft 145 kts 318°
2026-05-04 21:07 42.54218 18.30791 1155 ft 148 kts 329°
2026-05-04 21:07 42.54946 18.29889 926 ft 136 kts 301°
2026-05-04 21:08 42.55366 18.28754 647 ft 133 kts 299°
2026-05-04 21:08 42.55786 18.27693 496 ft 121 kts 301°
2026-05-04 21:08 42.56101 18.26926 508 ft 64 kts 297°
2026-05-04 21:08 42.56167 18.26665 510 ft 13 kts 258°
2026-05-04 21:09 42.56123 18.26533 510 ft 16 kts 238°
2026-05-04 21:09 42.56113 18.26510 510 ft 3 kts 243°
2026-05-04 21:09 42.56100 18.26472 510 ft 6 kts 249°
2026-05-04 21:09 42.56112 18.26414 511 ft 8 kts 298°
2026-05-04 21:10 42.56137 18.26350 511 ft 6 kts 279°
2026-05-04 21:10 42.56116 18.26321 512 ft 5 kts 204°
2026-05-04 21:10 42.56094 18.26305 512 ft 1 kts 207°
2026-05-04 21:10 42.56091 18.26303 512 ft 0 kts 207°